RYR3689 LIRI-EBCI

Flight info

Callsign RYR3689
Flight time 2h 4m
Altitude 36000
Route SOR DCT TEA DCT ATRUP DCT SORUG DCT NAXAV DCT UNIMI DCT MOGTI DCT KPT L608 MISGI Z104 ODVUX/N0445F280 Z104 GESLO N852 LNO
Aircraft B738/M-SDE2E3FGHIRWXY/LB1

Departure

Time 2026-04-24 00:01
Airport Salerno Costa d'Amalfi Airport (LIRI)

Arrival

Time 2026-04-24 02:05
Airport Brussels South Charleroi Airport (EBCI)
Time Latitude Longitude Altitude Speed Heading
2026-04-23 20:34 40.62023 14.91958 124 ft 0 kts 142°
2026-04-23 23:55 40.62023 14.91957 147 ft 0 kts 142°
2026-04-23 23:55 40.62036 14.91946 144 ft 2 kts 157°
2026-04-23 23:55 40.62052 14.91946 142 ft 2 kts 226°
2026-04-23 23:56 40.62057 14.91953 146 ft 0 kts 237°
2026-04-23 23:59 40.62050 14.91941 142 ft 6 kts 235°
2026-04-23 23:59 40.62027 14.91868 141 ft 10 kts 294°
2026-04-23 23:59 40.62085 14.91814 141 ft 10 kts 330°
2026-04-23 23:59 40.62138 14.91853 146 ft 10 kts 51°
2026-04-24 00:00 40.62192 14.91891 151 ft 9 kts 348°
2026-04-24 00:00 40.62247 14.91846 150 ft 9 kts 323°
2026-04-24 00:00 40.62295 14.91791 148 ft 9 kts 301°
2026-04-24 00:00 40.62279 14.91734 145 ft 0 kts 231°
2026-04-24 00:01 40.62193 14.91587 141 ft 61 kts 232°
2026-04-24 00:01 40.61751 14.90846 124 ft 142 kts 232°
2026-04-24 00:01 40.61057 14.89690 599 ft 164 kts 232°
2026-04-24 00:01 40.60321 14.88513 1446 ft 172 kts 231°
2026-04-24 00:02 40.59552 14.87286 2216 ft 183 kts 231°
2026-04-24 00:02 40.58670 14.85879 2553 ft 215 kts 231°
2026-04-24 00:02 40.57659 14.84268 2794 ft 241 kts 231°
2026-04-24 00:02 40.56545 14.82500 3066 ft 263 kts 230°
2026-04-24 00:03 40.55344 14.80599 3588 ft 276 kts 230°
2026-04-24 00:03 40.54119 14.78661 4422 ft 280 kts 230°
2026-04-24 00:03 40.52870 14.76689 5377 ft 282 kts 230°
2026-04-24 00:03 40.51611 14.74702 6327 ft 283 kts 229°
2026-04-24 00:04 40.50346 14.72707 7194 ft 286 kts 230°
2026-04-24 00:04 40.49064 14.70687 8004 ft 290 kts 230°
2026-04-24 00:04 40.47762 14.68636 8834 ft 294 kts 231°
2026-04-24 00:04 40.46438 14.66550 9657 ft 299 kts 231°
2026-04-24 00:05 40.45093 14.64434 10412 ft 305 kts 231°
2026-04-24 00:05 40.43705 14.62252 10687 ft 328 kts 231°
2026-04-24 00:05 40.42215 14.59840 10865 ft 351 kts 238°
2026-04-24 00:05 40.41296 14.56805 11040 ft 369 kts 264°
2026-04-24 00:06 40.41408 14.53425 11455 ft 375 kts 287°
2026-04-24 00:06 40.42423 14.50296 12108 ft 374 kts 306°
2026-04-24 00:06 40.44129 14.47758 12833 ft 371 kts 322°
2026-04-24 00:06 40.46150 14.45642 13568 ft 373 kts 326°
2026-04-24 00:07 40.48242 14.43597 14216 ft 377 kts 326°
2026-04-24 00:07 40.50366 14.41516 14815 ft 382 kts 326°
2026-04-24 00:07 40.52494 14.39383 15420 ft 386 kts 325°
2026-04-24 00:07 40.54626 14.37201 16009 ft 391 kts 324°
2026-04-24 00:08 40.56777 14.34983 16605 ft 395 kts 324°
2026-04-24 00:08 40.59047 14.32952 17116 ft 396 kts 337°
2026-04-24 00:08 40.61614 14.31633 17743 ft 397 kts 342°
2026-04-24 00:08 40.64212 14.30375 18333 ft 400 kts 342°
2026-04-24 00:09 40.66840 14.29094 18823 ft 404 kts 342°
2026-04-24 00:09 40.69487 14.27789 19305 ft 408 kts 341°
2026-04-24 00:09 40.72149 14.26461 19820 ft 411 kts 341°
2026-04-24 00:09 40.74831 14.25114 20319 ft 414 kts 341°
2026-04-24 00:10 40.77539 14.23746 20809 ft 417 kts 341°
2026-04-24 00:10 40.80255 14.22371 21269 ft 420 kts 341°
2026-04-24 00:10 40.82999 14.20979 21726 ft 423 kts 341°
2026-04-24 00:10 40.85723 14.19595 22166 ft 427 kts 341°
2026-04-24 00:11 40.88509 14.18180 22611 ft 430 kts 341°
2026-04-24 00:11 40.91315 14.16753 23054 ft 433 kts 341°
2026-04-24 00:11 40.94142 14.15314 23499 ft 435 kts 341°
2026-04-24 00:11 40.96981 14.13867 23885 ft 438 kts 341°
2026-04-24 00:12 40.99833 14.12413 24272 ft 440 kts 341°
2026-04-24 00:12 41.02688 14.10956 24685 ft 441 kts 341°
2026-04-24 00:12 41.05558 14.09489 25073 ft 442 kts 340°
2026-04-24 00:12 41.08397 14.08038 25431 ft 443 kts 340°
2026-04-24 00:13 41.11277 14.06564 25787 ft 445 kts 340°
2026-04-24 00:13 41.14176 14.05079 26135 ft 446 kts 340°
2026-04-24 00:13 41.17082 14.03588 26471 ft 448 kts 340°
2026-04-24 00:13 41.19996 14.02093 26800 ft 450 kts 340°
2026-04-24 00:14 41.22924 14.00588 27114 ft 451 kts 340°
2026-04-24 00:14 41.25858 13.99080 27429 ft 453 kts 340°
2026-04-24 00:14 41.28806 13.97563 27724 ft 455 kts 340°
2026-04-24 00:14 41.31813 13.96237 28014 ft 456 kts 345°
2026-04-24 00:15 41.34880 13.95127 28361 ft 456 kts 346°
2026-04-24 00:15 41.37945 13.94081 28793 ft 454 kts 346°
2026-04-24 00:15 41.41004 13.93051 29298 ft 451 kts 346°
2026-04-24 00:15 41.44003 13.92034 29757 ft 450 kts 346°
2026-04-24 00:16 41.47035 13.90993 30153 ft 449 kts 346°
2026-04-24 00:16 41.50056 13.89942 30482 ft 449 kts 346°
2026-04-24 00:16 41.53067 13.88886 30816 ft 448 kts 346°
2026-04-24 00:16 41.56079 13.87823 31133 ft 447 kts 346°
2026-04-24 00:17 41.59083 13.86760 31474 ft 446 kts 346°
2026-04-24 00:17 41.62095 13.85693 31811 ft 445 kts 346°
2026-04-24 00:17 41.65090 13.84631 32114 ft 445 kts 346°
2026-04-24 00:17 41.68079 13.83570 32423 ft 444 kts 346°
2026-04-24 00:18 41.71069 13.82508 32745 ft 443 kts 346°
2026-04-24 00:18 41.74045 13.81451 33058 ft 442 kts 346°
2026-04-24 00:18 41.77014 13.80395 33347 ft 442 kts 346°
2026-04-24 00:18 41.79990 13.79335 33626 ft 442 kts 346°
2026-04-24 00:19 41.82962 13.78276 33934 ft 441 kts 346°
2026-04-24 00:19 41.85925 13.77219 34239 ft 440 kts 346°
2026-04-24 00:19 41.88884 13.76163 34470 ft 440 kts 346°
2026-04-24 00:19 41.91847 13.75104 34683 ft 441 kts 346°
2026-04-24 00:20 41.94774 13.74057 34912 ft 440 kts 346°
2026-04-24 00:20 41.97739 13.72995 35159 ft 440 kts 346°
2026-04-24 00:20 42.00699 13.71935 35382 ft 440 kts 346°
2026-04-24 00:20 42.03657 13.70874 35585 ft 440 kts 346°
2026-04-24 00:21 42.06617 13.69811 35789 ft 440 kts 346°
2026-04-24 00:21 42.09584 13.68744 36009 ft 440 kts 346°
2026-04-24 00:21 42.12533 13.67683 36214 ft 440 kts 346°
2026-04-24 00:21 42.15504 13.66613 36201 ft 443 kts 346°
2026-04-24 00:22 42.21449 13.64468 36201 ft 441 kts 346°
2026-04-24 00:22 42.27358 13.62332 36209 ft 437 kts 346°
2026-04-24 00:23 42.33184 13.60223 36202 ft 435 kts 346°
2026-04-24 00:23 42.38977 13.57893 36209 ft 435 kts 343°
2026-04-24 00:24 42.44715 13.55254 36198 ft 435 kts 342°
2026-04-24 00:24 42.50460 13.52590 36219 ft 437 kts 343°
2026-04-24 00:25 42.56251 13.49936 36213 ft 440 kts 343°
2026-04-24 00:25 42.62074 13.47283 36206 ft 443 kts 343°
2026-04-24 00:26 42.67930 13.44615 36209 ft 445 kts 343°
2026-04-24 00:26 42.73828 13.41922 36200 ft 447 kts 343°
2026-04-24 00:27 42.79688 13.39240 36205 ft 447 kts 343°
2026-04-24 00:27 42.85581 13.36537 36204 ft 447 kts 343°
2026-04-24 00:28 42.91475 13.33828 36203 ft 446 kts 343°
2026-04-24 00:28 42.97353 13.31121 36205 ft 446 kts 343°
2026-04-24 00:29 43.03243 13.28404 36201 ft 445 kts 343°
2026-04-24 00:29 43.09108 13.25692 36202 ft 445 kts 343°
2026-04-24 00:30 43.14942 13.22989 36194 ft 444 kts 344°
2026-04-24 00:30 43.20799 13.20270 36198 ft 444 kts 344°
2026-04-24 00:31 43.26644 13.17551 36191 ft 444 kts 344°
2026-04-24 00:31 43.32498 13.14823 36204 ft 444 kts 344°
2026-04-24 00:32 43.38349 13.12090 36173 ft 444 kts 344°
2026-04-24 00:32 43.44206 13.09349 36181 ft 444 kts 344°
2026-04-24 00:33 43.49063 13.07072 36178 ft 445 kts 344°
2026-04-24 00:33 43.54929 13.04316 36173 ft 445 kts 344°
2026-04-24 00:34 43.60805 13.01549 36174 ft 446 kts 345°
2026-04-24 00:34 43.66682 12.98777 36168 ft 446 kts 345°
2026-04-24 00:35 43.72515 12.95741 36174 ft 448 kts 341°
2026-04-24 00:35 43.78263 12.92428 36168 ft 449 kts 341°
2026-04-24 00:36 43.84030 12.89084 36164 ft 449 kts 341°
2026-04-24 00:36 43.89766 12.85791 36162 ft 449 kts 341°
2026-04-24 00:37 43.95535 12.82494 36157 ft 449 kts 341°
2026-04-24 00:37 44.01317 12.79190 36158 ft 449 kts 342°
2026-04-24 00:38 44.07091 12.75883 36155 ft 448 kts 342°
2026-04-24 00:38 44.12856 12.72573 36155 ft 448 kts 342°
2026-04-24 00:39 44.18629 12.69251 36154 ft 448 kts 342°
2026-04-24 00:39 44.24398 12.65924 36149 ft 448 kts 342°
2026-04-24 00:40 44.30125 12.62614 36149 ft 448 kts 342°
2026-04-24 00:40 44.35889 12.59276 36148 ft 448 kts 342°
2026-04-24 00:41 44.41662 12.55925 36146 ft 449 kts 342°
2026-04-24 00:41 44.47444 12.52563 36143 ft 449 kts 342°
2026-04-24 00:42 44.53172 12.49224 36140 ft 449 kts 342°
2026-04-24 00:42 44.58950 12.45849 36140 ft 450 kts 342°
2026-04-24 00:43 44.64733 12.42463 36135 ft 450 kts 342°
2026-04-24 00:43 44.70519 12.39069 36129 ft 451 kts 342°
2026-04-24 00:44 44.76309 12.35665 36131 ft 451 kts 342°
2026-04-24 00:44 44.82098 12.32254 36130 ft 451 kts 342°
2026-04-24 00:45 44.87896 12.28830 36130 ft 452 kts 342°
2026-04-24 00:45 44.93692 12.25400 36128 ft 452 kts 342°
2026-04-24 00:46 44.99497 12.21957 36128 ft 452 kts 342°
2026-04-24 00:46 45.05305 12.18504 36126 ft 452 kts 342°
2026-04-24 00:47 45.11112 12.15045 36125 ft 452 kts 342°
2026-04-24 00:47 45.16870 12.11607 36127 ft 452 kts 342°
2026-04-24 00:48 45.22676 12.08133 36125 ft 452 kts 342°
2026-04-24 00:48 45.28469 12.04659 36128 ft 452 kts 342°
2026-04-24 00:49 45.34266 12.01175 36125 ft 452 kts 342°
2026-04-24 00:49 45.40053 11.97688 36128 ft 452 kts 342°
2026-04-24 00:50 45.45847 11.94191 36134 ft 451 kts 342°
2026-04-24 00:50 45.51594 11.90713 36130 ft 451 kts 342°
2026-04-24 00:51 45.57373 11.87209 36131 ft 451 kts 342°
2026-04-24 00:51 45.63158 11.83693 36132 ft 451 kts 342°
2026-04-24 00:52 45.68931 11.80176 36128 ft 451 kts 342°
2026-04-24 00:52 45.74705 11.76651 36129 ft 451 kts 342°
2026-04-24 00:53 45.80484 11.73115 36139 ft 451 kts 342°
2026-04-24 00:53 45.86239 11.69585 36142 ft 450 kts 342°
2026-04-24 00:54 45.92000 11.66044 36137 ft 450 kts 342°
2026-04-24 00:54 45.97719 11.62520 36142 ft 450 kts 342°
2026-04-24 00:55 46.03483 11.58962 36135 ft 451 kts 342°
2026-04-24 00:55 46.09217 11.55413 36152 ft 451 kts 342°
2026-04-24 00:56 46.14993 11.51830 36164 ft 452 kts 342°
2026-04-24 00:56 46.20764 11.48242 36180 ft 451 kts 342°
2026-04-24 00:57 46.26522 11.44653 36196 ft 451 kts 342°
2026-04-24 00:58 46.35160 11.39255 36209 ft 451 kts 342°
2026-04-24 00:58 46.40920 11.35644 36205 ft 451 kts 342°
2026-04-24 00:59 46.46671 11.32032 36195 ft 451 kts 341°
2026-04-24 00:59 46.52373 11.28383 36184 ft 450 kts 341°
2026-04-24 01:00 46.58083 11.24689 36187 ft 448 kts 341°
2026-04-24 01:00 46.63791 11.20996 36167 ft 449 kts 341°
2026-04-24 01:01 46.69504 11.17298 36153 ft 449 kts 341°
2026-04-24 01:01 46.75202 11.13599 36175 ft 450 kts 341°
2026-04-24 01:02 46.80925 11.09877 36179 ft 450 kts 341°
2026-04-24 01:02 46.86650 11.06144 36170 ft 451 kts 341°
2026-04-24 01:03 46.92368 11.02411 36192 ft 450 kts 341°
2026-04-24 01:03 46.98099 10.98663 36197 ft 451 kts 341°
2026-04-24 01:04 47.03807 10.94919 36211 ft 452 kts 341°
2026-04-24 01:04 47.09552 10.91141 36224 ft 453 kts 341°
2026-04-24 01:05 47.15309 10.87347 36224 ft 453 kts 341°
2026-04-24 01:05 47.21073 10.83538 36237 ft 453 kts 340°
2026-04-24 01:06 47.26811 10.79738 36221 ft 453 kts 340°
2026-04-24 01:06 47.32561 10.75920 36226 ft 452 kts 340°
2026-04-24 01:07 47.38277 10.72096 36248 ft 451 kts 338°
2026-04-24 01:07 47.43618 10.67109 36235 ft 457 kts 329°
2026-04-24 01:08 47.48772 10.61700 36229 ft 457 kts 329°
2026-04-24 01:08 47.53965 10.56296 36256 ft 457 kts 329°
2026-04-24 01:09 47.59187 10.50919 36249 ft 458 kts 329°
2026-04-24 01:09 47.64419 10.45533 36258 ft 458 kts 329°
2026-04-24 01:10 47.69668 10.40111 36256 ft 459 kts 329°
2026-04-24 01:10 47.74383 10.35225 36257 ft 460 kts 328°
2026-04-24 01:11 47.79438 10.29359 36246 ft 462 kts 324°
2026-04-24 01:11 47.84351 10.23250 36244 ft 463 kts 324°
2026-04-24 01:12 47.89305 10.17105 36237 ft 463 kts 324°
2026-04-24 01:12 47.94278 10.10991 36242 ft 463 kts 324°
2026-04-24 01:13 47.99266 10.04869 36242 ft 464 kts 324°
2026-04-24 01:13 48.04246 9.98743 36245 ft 464 kts 324°
2026-04-24 01:14 48.09222 9.92602 36243 ft 464 kts 324°
2026-04-24 01:14 48.14209 9.86431 36239 ft 465 kts 324°
2026-04-24 01:15 48.19174 9.80270 36237 ft 465 kts 324°
2026-04-24 01:15 48.24122 9.74114 36239 ft 464 kts 323°
2026-04-24 01:16 48.29075 9.67937 36246 ft 464 kts 323°
2026-04-24 01:16 48.34045 9.61722 36243 ft 464 kts 323°
2026-04-24 01:17 48.38917 9.55508 36247 ft 465 kts 322°
2026-04-24 01:17 48.43794 9.49212 36241 ft 465 kts 322°
2026-04-24 01:18 48.48705 9.42868 36242 ft 464 kts 322°
2026-04-24 01:18 48.53617 9.36518 36243 ft 465 kts 322°
2026-04-24 01:19 48.57690 9.31242 36234 ft 465 kts 322°
2026-04-24 01:19 48.62784 9.25272 36228 ft 461 kts 333°
2026-04-24 01:20 48.68577 9.21247 36238 ft 457 kts 340°
2026-04-24 01:20 48.74444 9.17512 36238 ft 458 kts 340°
2026-04-24 01:21 48.80302 9.13666 36241 ft 458 kts 339°
2026-04-24 01:21 48.86143 9.09774 36238 ft 459 kts 339°
2026-04-24 01:22 48.91981 9.05832 36242 ft 459 kts 338°
2026-04-24 01:22 48.97798 9.01793 36238 ft 460 kts 338°
2026-04-24 01:23 49.03624 8.97739 36239 ft 460 kts 338°
2026-04-24 01:23 49.09449 8.93689 36246 ft 460 kts 338°
2026-04-24 01:24 49.15245 8.89652 36245 ft 461 kts 338°
2026-04-24 01:24 49.21102 8.85685 36243 ft 459 kts 342°
2026-04-24 01:25 49.27163 8.82659 36251 ft 458 kts 345°
2026-04-24 01:25 49.33247 8.79837 36258 ft 458 kts 345°
2026-04-24 01:26 49.39333 8.76924 36262 ft 458 kts 345°
2026-04-24 01:26 49.45399 8.73953 36255 ft 458 kts 344°
2026-04-24 01:27 49.51428 8.70982 36264 ft 458 kts 344°
2026-04-24 01:27 49.57495 8.67987 36265 ft 457 kts 344°
2026-04-24 01:28 49.63560 8.64988 36260 ft 457 kts 344°
2026-04-24 01:28 49.69576 8.61851 36255 ft 458 kts 337°
2026-04-24 01:29 49.74962 8.56600 36255 ft 461 kts 319°
2026-04-24 01:29 49.79560 8.49720 36260 ft 462 kts 317°
2026-04-24 01:30 49.83919 8.42408 36264 ft 463 kts 305°
2026-04-24 01:30 49.86809 8.33509 36274 ft 465 kts 289°
2026-04-24 01:31 49.88737 8.23997 36275 ft 466 kts 287°
2026-04-24 01:31 49.90667 8.14394 36277 ft 466 kts 288°
2026-04-24 01:32 49.92655 8.04799 36281 ft 467 kts 288°
2026-04-24 01:32 49.94646 7.95197 36278 ft 467 kts 287°
2026-04-24 01:33 49.96508 7.85539 36285 ft 467 kts 286°
2026-04-24 01:33 49.98336 7.75837 36280 ft 468 kts 286°
2026-04-24 01:34 50.00238 7.66198 36283 ft 467 kts 288°
2026-04-24 01:34 50.02222 7.56631 36286 ft 467 kts 287°
2026-04-24 01:35 50.04189 7.47021 36288 ft 467 kts 287°
2026-04-24 01:35 50.06140 7.37362 36289 ft 467 kts 287°
2026-04-24 01:36 50.07893 7.27637 36283 ft 466 kts 278°
2026-04-24 01:36 50.08389 7.17609 36294 ft 464 kts 271°
2026-04-24 01:37 50.08717 7.07566 36296 ft 464 kts 272°
2026-04-24 01:37 50.09111 6.97522 36292 ft 465 kts 272°
2026-04-24 01:38 50.09506 6.87487 36286 ft 464 kts 270°
2026-04-24 01:38 50.09387 6.77448 36281 ft 463 kts 266°
2026-04-24 01:39 50.09126 6.67489 36277 ft 463 kts 266°
2026-04-24 01:39 50.08892 6.57465 36275 ft 463 kts 266°
2026-04-24 01:40 50.08663 6.47427 36277 ft 463 kts 266°
2026-04-24 01:40 50.08426 6.37402 36282 ft 463 kts 266°
2026-04-24 01:41 50.08229 6.27363 36281 ft 463 kts 266°
2026-04-24 01:41 50.08001 6.17347 36293 ft 462 kts 265°
2026-04-24 01:42 50.07979 6.07345 36273 ft 466 kts 282°
2026-04-24 01:42 50.09178 6.02699 36311 ft 468 kts 302°
2026-04-24 01:42 50.11307 5.98951 36312 ft 469 kts 321°
2026-04-24 01:42 50.14052 5.96233 36298 ft 470 kts 336°
2026-04-24 01:43 50.17096 5.94410 36325 ft 469 kts 341°
2026-04-24 01:43 50.20205 5.92728 35783 ft 477 kts 341°
2026-04-24 01:43 50.23355 5.91050 35160 ft 477 kts 341°
2026-04-24 01:43 50.26484 5.89356 34500 ft 477 kts 341°
2026-04-24 01:44 50.29619 5.87623 33738 ft 479 kts 340°
2026-04-24 01:44 50.32755 5.85858 32972 ft 479 kts 340°
2026-04-24 01:44 50.35894 5.84074 32216 ft 480 kts 340°
2026-04-24 01:44 50.39031 5.82282 31456 ft 480 kts 339°
2026-04-24 01:45 50.42173 5.80486 30689 ft 481 kts 339°
2026-04-24 01:45 50.45320 5.78686 29781 ft 482 kts 339°
2026-04-24 01:45 50.48460 5.76890 29176 ft 476 kts 339°
2026-04-24 01:45 50.51559 5.75114 28550 ft 471 kts 339°
2026-04-24 01:46 50.54606 5.73320 27959 ft 464 kts 336°
2026-04-24 01:46 50.57435 5.70933 27378 ft 458 kts 326°
2026-04-24 01:46 50.59951 5.67914 26788 ft 453 kts 317°
2026-04-24 01:46 50.62106 5.64413 26207 ft 447 kts 308°
2026-04-24 01:47 50.64033 5.60599 25653 ft 443 kts 307°
2026-04-24 01:47 50.65922 5.56790 25086 ft 439 kts 307°
2026-04-24 01:47 50.67794 5.53015 24539 ft 435 kts 307°
2026-04-24 01:47 50.69661 5.49279 23995 ft 432 kts 308°
2026-04-24 01:48 50.71520 5.45579 23357 ft 429 kts 308°
2026-04-24 01:48 50.73370 5.41910 22769 ft 425 kts 308°
2026-04-24 01:48 50.75202 5.38282 22214 ft 420 kts 308°
2026-04-24 01:48 50.77012 5.34694 21662 ft 415 kts 308°
2026-04-24 01:49 50.78798 5.31147 21105 ft 411 kts 308°
2026-04-24 01:49 50.80560 5.27642 20571 ft 407 kts 308°
2026-04-24 01:49 50.82313 5.24152 20040 ft 404 kts 308°
2026-04-24 01:49 50.84052 5.20684 19512 ft 400 kts 308°
2026-04-24 01:50 50.85754 5.17209 18988 ft 397 kts 304°
2026-04-24 01:50 50.87050 5.13398 18432 ft 395 kts 292°
2026-04-24 01:50 50.87852 5.09267 17855 ft 392 kts 281°
2026-04-24 01:50 50.88153 5.05056 17318 ft 388 kts 274°
2026-04-24 01:51 50.88321 5.00814 16780 ft 385 kts 274°
2026-04-24 01:51 50.88473 4.96597 16251 ft 382 kts 274°
2026-04-24 01:51 50.88629 4.92411 15734 ft 379 kts 274°
2026-04-24 01:51 50.88794 4.88254 15222 ft 376 kts 274°
2026-04-24 01:52 50.88964 4.84137 14716 ft 373 kts 275°
2026-04-24 01:52 50.89138 4.80037 14213 ft 371 kts 275°
2026-04-24 01:52 50.89311 4.75973 13649 ft 369 kts 275°
2026-04-24 01:52 50.89483 4.71929 13113 ft 366 kts 275°
2026-04-24 01:53 50.89650 4.67990 12606 ft 364 kts 275°
2026-04-24 01:53 50.89816 4.64019 12091 ft 361 kts 275°
2026-04-24 01:53 50.89980 4.60041 11605 ft 358 kts 275°
2026-04-24 01:53 50.89802 4.56128 11136 ft 357 kts 254°
2026-04-24 01:54 50.88789 4.52724 11028 ft 345 kts 236°
2026-04-24 01:54 50.87299 4.50161 10887 ft 334 kts 219°
2026-04-24 01:54 50.85449 4.47918 10754 ft 323 kts 216°
2026-04-24 01:54 50.83659 4.45853 10611 ft 314 kts 216°
2026-04-24 01:55 50.81945 4.43878 10481 ft 305 kts 216°
2026-04-24 01:55 50.80267 4.41928 10350 ft 296 kts 216°
2026-04-24 01:55 50.78618 4.39996 10045 ft 295 kts 216°
2026-04-24 01:55 50.76974 4.38060 9736 ft 293 kts 217°
2026-04-24 01:56 50.75345 4.36135 9424 ft 291 kts 217°
2026-04-24 01:56 50.73727 4.34222 9125 ft 290 kts 217°
2026-04-24 01:56 50.72114 4.32317 8814 ft 288 kts 216°
2026-04-24 01:56 50.70514 4.30430 8515 ft 287 kts 215°
2026-04-24 01:57 50.68732 4.29096 8201 ft 284 kts 191°
2026-04-24 01:57 50.66770 4.28766 7956 ft 285 kts 181°
2026-04-24 01:57 50.64777 4.28627 7669 ft 288 kts 181°
2026-04-24 01:57 50.62773 4.28505 7382 ft 288 kts 181°
2026-04-24 01:58 50.60778 4.28374 7088 ft 286 kts 181°
2026-04-24 01:58 50.58783 4.28233 6567 ft 293 kts 181°
2026-04-24 01:58 50.56744 4.28078 6197 ft 293 kts 181°
2026-04-24 01:58 50.54722 4.27918 5895 ft 290 kts 181°
2026-04-24 01:59 50.52718 4.27758 5597 ft 284 kts 181°
2026-04-24 01:59 50.50771 4.27601 5312 ft 274 kts 181°
2026-04-24 01:59 50.48928 4.27176 5022 ft 267 kts 200°
2026-04-24 01:59 50.47442 4.25600 4818 ft 253 kts 227°
2026-04-24 02:00 50.46499 4.23349 4577 ft 243 kts 245°
2026-04-24 02:00 50.45794 4.21002 4338 ft 233 kts 241°
2026-04-24 02:00 50.44678 4.19285 4071 ft 222 kts 204°
2026-04-24 02:00 50.43233 4.18842 3875 ft 209 kts 174°
2026-04-24 02:01 50.41835 4.19335 3685 ft 205 kts 155°
2026-04-24 02:01 50.40579 4.20344 3466 ft 200 kts 135°
2026-04-24 02:01 50.39865 4.22106 3280 ft 190 kts 101°
2026-04-24 02:01 50.39862 4.24091 3108 ft 184 kts 72°
2026-04-24 02:02 50.40346 4.25905 2958 ft 177 kts 64°
2026-04-24 02:02 50.40851 4.27639 2766 ft 173 kts 65°
2026-04-24 02:02 50.41349 4.29346 2591 ft 171 kts 65°
2026-04-24 02:02 50.41847 4.31058 2389 ft 173 kts 65°
2026-04-24 02:03 50.42787 4.34280 1986 ft 146 kts 65°
2026-04-24 02:03 50.43194 4.35676 1766 ft 137 kts 65°
2026-04-24 02:03 50.43457 4.36576 1660 ft 138 kts 65°
2026-04-24 02:04 50.43859 4.37959 1480 ft 141 kts 65°
2026-04-24 02:04 50.44277 4.39390 1331 ft 147 kts 65°
2026-04-24 02:04 50.44846 4.41367 1055 ft 150 kts 65°
2026-04-24 02:04 50.45278 4.42850 827 ft 147 kts 65°
2026-04-24 02:05 50.45563 4.43830 675 ft 145 kts 65°
2026-04-24 02:05 50.45965 4.45216 596 ft 126 kts 65°
2026-04-24 02:05 50.46269 4.46251 583 ft 83 kts 65°
2026-04-24 02:05 50.46423 4.46786 579 ft 31 kts 65°
2026-04-24 02:06 50.46551 4.46864 578 ft 22 kts 338°
2026-04-24 02:06 50.46646 4.46802 580 ft 13 kts 342°
2026-04-24 02:06 50.46701 4.46862 581 ft 10 kts 70°
2026-04-24 02:06 50.46729 4.46962 580 ft 9 kts 57°
2026-04-24 02:07 50.46781 4.46960 577 ft 8 kts 335°
2026-04-24 02:07 50.46816 4.46934 581 ft 0 kts 334°